EW2270 Weather Reports


time (UTC)temp
C
wind
direction
speed
KPH
gust
KPH
rain 1hr
cm
rain 24hr
cm
rain mn
cm
humidity
%
barometer
mb
20260510233055 21 259 0.0 4.8 0.00 0.00 0.00 40 1013.4
20260510231555 21 100 0.0 3.2 0.00 0.00 0.00 38 1013.5
20260510230055 22 336 0.0 8.0 0.00 0.00 0.00 38 1013.1
20260510224553 21 7 3.2 8.0 0.00 0.00 0.00 39 1013.6
20260510223052 21 274 6.4 9.7 0.00 0.00 0.00 38 1013.7
20260510221551 21 314 1.6 12.9 0.00 0.00 0.00 40 1013.6
20260510220051 21 297 4.8 14.5 0.00 0.00 0.00 43 1013.9
20260510214549 21 276 6.4 12.9 0.00 0.00 0.00 40 1013.8
20260510213049 21 276 9.7 14.5 0.00 0.00 0.00 40 1013.7
20260510211548 22 110 0.0 6.4 0.00 0.00 0.00 39 1013.5
20260510210047 21 288 4.8 16.1 0.00 0.00 0.00 42 1013.7
20260510204545 21 307 8.0 16.1 0.00 0.00 0.00 45 1013.7
20260510203045 21 266 9.7 19.3 0.00 0.00 0.00 45 1013.7
20260510201545 21 249 11.3 19.3 0.00 0.00 0.00 44 1013.4
20260510200044 20 323 4.8 9.7 0.00 0.00 0.00 46 1013.2
20260510194542 21 283 6.4 12.9 0.00 0.00 0.00 43 1013.5
20260510193041 21 292 9.7 19.3 0.00 0.00 0.00 41 1013.8
20260510191540 21 289 11.3 16.1 0.00 0.00 0.00 42 1013.8
20260510190043 20 295 8.0 12.9 0.00 0.00 0.00 43 1013.6
20260510184540 20 276 4.8 12.9 0.00 0.00 0.00 43 1013.4
20260510183038 20 222 1.6 9.7 0.00 0.00 0.00 44 1013.3
20260510181534 20 298 1.6 4.8 0.00 0.00 0.00 46 1013.6
20260510180034 19 321 0.0 8.0 0.00 0.00 0.00 47 1013.4
20260510174529 18 268 8.0 11.3 0.00 0.00 0.00 48 1013.6
20260510173027 18 274 9.7 16.1 0.00 0.00 0.00 50 1013.9
20260510171528 18 274 4.8 9.7 0.00 0.00 0.00 48 1013.5
20260510170023 17 295 3.2 6.4 0.00 0.00 0.00 49 1013.5
20260510164520 17 310 3.2 9.7 0.00 0.00 0.00 53 1013.8
20260510163019 16 310 6.4 11.3 0.00 0.00 0.00 55 1014.0
20260510161518 16 290 11.3 20.9 0.00 0.00 0.00 52 1013.8
20260510160017 17 282 8.0 14.5 0.00 0.00 0.00 51 1014.0
20260510154517 17 309 0.0 8.0 0.00 0.00 0.00 53 1013.9
20260510153011 15 20 3.2 6.4 0.00 0.00 0.00 56 1014.3
20260510151508 15 321 3.2 4.8 0.00 0.00 0.00 61 1014.5
20260510150003 13 47 1.6 6.4 0.00 0.00 0.00 75 1014.6
20260510144502 12 298 3.2 4.8 0.00 0.00 0.00 76 1014.5
20260510143110 12 139 0.0 1.6 0.00 0.00 0.00 77 1014.2
20260510141603 11 139 0.0 3.2 0.00 0.00 0.00 77 1014.3
20260510140052 10 139 0.0 1.6 0.00 0.00 0.00 80 1014.2
20260510134604 9 139 1.6 3.2 0.00 0.00 0.00 79 1013.9
20260510133050 8 139 0.0 4.8 0.00 0.00 0.00 83 1013.8
20260510131550 7 116 0.0 3.2 0.00 0.00 0.00 81 1013.4
20260510130049 7 116 0.0 1.6 0.00 0.00 0.00 81 1013.6
20260510124554 7 116 0.0 3.2 0.00 0.00 0.00 86 1013.5
20260510123045 6 138 1.6 3.2 0.00 0.00 0.00 85 1013.5
20260510121543 6 138 3.2 3.2 0.00 0.00 0.00 85 1013.5
20260510120042 7 138 0.0 3.2 0.00 0.00 0.00 85 1013.4
20260510114541 7 138 1.6 3.2 0.00 0.00 0.00 85 1013.4
20260510113039 7 138 0.0 0.0 0.00 0.00 0.00 85 1013.4
20260510111552 7 138 0.0 1.6 0.00 0.00 0.00 86 1013.4
20260510110038 7 138 0.0 0.0 0.00 0.00 0.00 80 1013.5
20260510104545 8 138 0.0 1.6 0.00 0.00 0.00 81 1013.4
20260510103037 7 138 1.6 3.2 0.00 0.00 0.00 84 1013.6
20260510101534 7 138 3.2 3.2 0.00 0.00 0.00 86 1013.7
20260510100030 6 138 3.2 3.2 0.00 0.00 0.00 86 1013.9
20260510094531 7 138 0.0 1.6 0.00 0.00 0.00 85 1013.9
20260510093025 7 138 0.0 4.8 0.00 0.00 0.00 85 1013.9
20260510091526 7 123 0.0 3.2 0.00 0.00 0.00 84 1013.9
20260510090020 7 123 0.0 3.2 0.00 0.00 0.00 83 1014.1
20260510084517 8 123 0.0 3.2 0.00 0.00 0.00 80 1014.3
20260510083015 8 123 3.2 0.0 0.00 0.00 0.00 80 1014.3
20260510081513 8 123 1.6 3.2 0.00 0.00 0.00 78 1014.4
20260510080011 8 123 0.0 3.2 0.00 0.00 0.00 80 1014.4
20260510074508 10 123 0.0 4.8 0.00 0.00 0.00 78 1014.4
20260510073006 10 137 0.0 1.6 0.00 0.00 0.00 77 1014.5
20260510071502 10 137 0.0 3.2 0.00 0.00 0.00 75 1014.3
20260510070000 10 137 0.0 1.6 0.00 0.00 0.00 77 1014.3
20260510064601 10 137 0.0 3.2 0.00 0.00 0.00 76 1014.5
20260510063106 10 137 0.0 1.6 0.00 0.00 0.00 77 1014.4
20260510061559 10 137 1.6 3.2 0.00 0.00 0.00 75 1014.4
20260510060101 10 137 0.0 0.0 0.00 0.00 0.00 74 1014.4
20260510054559 11 137 0.0 1.6 0.00 0.00 0.00 69 1014.4
20260510053059 11 137 0.0 1.6 0.00 0.00 0.00 71 1014.7
20260510051642 12 137 0.0 4.8 0.00 0.00 0.00 69 1014.8
20260510050054 11 213 4.8 6.4 0.00 0.00 0.00 74 1015.0
20260510044554 13 139 1.6 4.8 0.00 0.00 0.00 66 1014.8
20260510043139 13 193 0.0 1.6 0.00 0.00 0.00 68 1015.0
20260510041554 15 193 0.0 3.2 0.00 0.00 0.00 63 1015.1
20260510040051 15 194 0.0 3.2 0.00 0.00 0.00 59 1015.0
20260510034554 16 110 0.0 4.8 0.00 0.00 0.00 55 1014.9
20260510033056 18 40 6.4 11.3 0.00 0.00 0.00 47 1014.9
20260510031620 18 72 4.8 11.3 0.00 0.00 0.00 46 1014.8
20260510030052 18 64 6.4 11.3 0.00 0.00 0.00 46 1014.8
20260510024547 19 84 6.4 9.7 0.00 0.00 0.00 49 1014.8
20260510023054 20 51 4.8 9.7 0.00 0.00 0.00 48 1014.8
20260510021546 21 51 6.4 12.9 0.00 0.00 0.00 44 1015.0
20260510020048 21 45 8.0 14.5 0.00 0.00 0.00 41 1015.1
20260510014544 22 49 9.7 14.5 0.00 0.00 0.00 41 1015.1
20260510013041 22 65 9.7 16.1 0.00 0.00 0.00 39 1015.2
20260510011553 22 41 11.3 19.3 0.00 0.00 0.00 38 1015.4
20260510010044 22 37 14.5 19.3 0.00 0.00 0.00 38 1015.5
20260510004536 23 11 11.3 20.9 0.00 0.00 0.00 33 1015.5
20260510003035 23 349 8.0 12.9 0.00 0.00 0.00 27 1015.6
20260510001532 23 331 4.8 14.5 0.00 0.00 0.00 27 1015.7
20260510000029 23 327 3.2 12.9 0.00 0.00 0.00 30 1015.7
20260509234527 23 14 9.7 16.1 0.00 0.00 0.00 29 1015.9